CW5456 Hansville WA US current weather conditions

sailwx.info

Last reported at 2014-May-31 21:31 UTC.
Time now 2015-Apr-19 03:05 UTC

Location: N 47°55' W 122°35'.
View on Google Maps.

See reports from other nearby stations

  
Tides and Currents Weather Stations Pressure Air Temp Water Temp Dewpoint Dewpoint Depression Visibility Wind Speed Wind Dir Waves Ship Positions
date/time (UTC)wind fromknots sea level pressurealtimeterstation pressurevisibilityair tempwater tempwave heightnotes
2015-Apr-19 02:39 337 6 gusting 6 11.7
2015-Apr-19 02:34 335 3 gusting 6 11.7
2015-Apr-19 02:29 320 3 gusting 6 11.7
2015-Apr-19 02:14 013 11.7
2015-Apr-19 02:09 013 0 gusting 5 11.7
2015-Apr-19 01:49 005 6 gusting 11 12.2
2015-Apr-19 01:44 010 7 gusting 11 12.2
2015-Apr-19 01:39 005 11 gusting 12 12.2
2015-Apr-19 01:29 014 8 gusting 10 12.2
2015-Apr-19 01:24 015 8 gusting 10 12.2
2015-Apr-19 01:19 013 7 gusting 8 12.2
2015-Apr-19 01:04 015 6 gusting 8 12.2
2015-Apr-19 00:59 015 6 gusting 8 12.2
2015-Apr-19 00:49 360 7 gusting 9 12.2
2015-Apr-19 00:44 012 7 gusting 9 12.2
2015-Apr-19 00:29 009 5 gusting 6 12.2
2015-Apr-19 00:24 338 5 gusting 5 12.2
2015-Apr-19 00:19 340 2 gusting 7 12.2
2015-Apr-18 23:39 005 7 gusting 10 12.2
2015-Apr-18 23:34 355 7 gusting 9 12.2
2015-Apr-18 23:24 038 6 gusting 12 12.2
2015-Apr-18 23:19 041 9 gusting 13 12.2
2015-Apr-18 23:14 036 10 gusting 14 11.7
2015-Apr-18 23:04 030 12 gusting 15 12.2
2015-Apr-18 22:44 005 14 gusting 16 11.7
2015-Apr-18 22:19 005 13 gusting 15 11.7
2015-Apr-18 22:14 011 13 gusting 15 11.7
2015-Apr-18 21:59 014 10 gusting 11 12.2
2015-Apr-18 21:54 014 8 gusting 11 12.2
2015-Apr-18 21:49 017 8 gusting 11 12.2
2015-Apr-18 21:39 005 11 gusting 12 11.7
2015-Apr-18 21:34 009 8 gusting 11 11.7
2015-Apr-18 21:24 360 7 gusting 10 11.7
2015-Apr-18 21:14 360 9 gusting 12 11.7
2015-Apr-18 21:09 360 9 gusting 12 11.7
2015-Apr-18 21:04 355 12 gusting 12 11.7
2015-Apr-18 20:59 349 8 gusting 15 11.7
2015-Apr-18 20:54 005 12 gusting 15 11.7
2015-Apr-18 20:49 360 10 gusting 13 11.7
2015-Apr-18 20:44 360 11 gusting 13 11.7
2015-Apr-18 20:24 360 12 gusting 15 11.7
2015-Apr-18 20:19 005 11 gusting 14 11.7
2015-Apr-18 20:14 013 12 gusting 15 11.7
2015-Apr-18 20:04 017 11 gusting 14 11.7
2015-Apr-18 19:49 015 12 gusting 13 11.7
2015-Apr-18 19:34 360 9 gusting 13 11.1
2015-Apr-18 19:19 349 7 gusting 11 11.1
2015-Apr-18 19:04 009 9 gusting 17 11.1
2015-Apr-18 18:59 005 11 gusting 17 11.1
2015-Apr-18 18:54 360 11 gusting 17 11.1
2015-Apr-18 18:49 360 14 gusting 15 11.1
2015-Apr-18 18:44 355 8 gusting 15 11.1
2015-Apr-18 18:34 360 11 gusting 15 11.1
2015-Apr-18 18:24 005 11 gusting 14 11.1
2015-Apr-18 18:19 360 9 gusting 13 11.1
2015-Apr-18 18:14 009 9 gusting 13 11.1
2015-Apr-18 18:09 360 8 gusting 14 11.1
2015-Apr-18 18:04 360 10 gusting 14 11.1
2015-Apr-18 17:59 009 11 gusting 14 11.1
2015-Apr-18 17:49 018 12 gusting 14 11.1
2015-Apr-18 17:44 013 13 gusting 15 11.1
2015-Apr-18 17:34 360 11 gusting 16 10.6
2015-Apr-18 17:24 360 14 gusting 17 10.6
2015-Apr-18 17:19 005 13 gusting 16 10.6
2015-Apr-18 17:14 011 12 gusting 15 10.6
2015-Apr-18 16:54 360 10 gusting 16 10.6
2015-Apr-18 16:39 010 11 gusting 12 10.6
2015-Apr-18 16:34 010 9 gusting 12 10.6
2015-Apr-18 16:29 010 10 gusting 12 10.6
2015-Apr-18 16:19 360 10 gusting 10 10.0
2015-Apr-18 16:14 360 9 gusting 10 10.0
2015-Apr-18 16:04 360 6 gusting 11 10.0
2015-Apr-18 15:59 329 8 gusting 12 10.0
2015-Apr-18 15:54 339 10 gusting 12 10.0
2015-Apr-18 15:49 331 9 gusting 11 10.0
2015-Apr-18 15:19 355 6 gusting 6 10.0
2015-Apr-18 15:14 360 6 gusting 6 9.4
2015-Apr-18 14:54 343 5 gusting 7 9.4
2015-Apr-18 14:49 342 7 gusting 7 9.4
2015-Apr-18 14:39 349 5 gusting 7 9.4
2015-Apr-18 14:29 350 3 gusting 6 8.9
2015-Apr-18 14:24 342 2 gusting 6 8.9
2015-Apr-18 13:59 333 1 gusting 2 7.2
2015-Apr-18 13:54 333 7.2
2015-Apr-18 13:49 333 7.2
2015-Apr-18 13:34 333 7.2
2015-Apr-18 13:24 333 1 gusting 3 7.2
2015-Apr-18 13:04 333 7.2
2015-Apr-18 12:59 333 7.2
2015-Apr-18 12:49 333 0 gusting 3 7.8
2015-Apr-18 12:44 333 7.8
2015-Apr-18 12:39 333 1 gusting 2 7.8
2015-Apr-18 12:34 333 0 gusting 1 7.8
2015-Apr-18 12:14 333 7.8
2015-Apr-18 12:04 333 7.8
2015-Apr-18 11:54 333 7.8
2015-Apr-18 11:49 333 0 gusting 3 7.8
2015-Apr-18 11:44 333 0 gusting 2 7.8
2015-Apr-18 11:34 333 0 gusting 1 7.8
2015-Apr-18 11:29 333 7.8
2015-Apr-18 11:24 333 7.8
2015-Apr-18 11:09 333 7.8
2015-Apr-18 10:59 333 7.8
2015-Apr-18 10:54 333 8.3
2015-Apr-18 10:39 290 8.3
2015-Apr-18 10:34 291 8.3
2015-Apr-18 10:19 331 2 gusting 2 8.9
2015-Apr-18 10:14 344 0 gusting 2 8.9
2015-Apr-18 09:54 346 2 gusting 5 9.4
2015-Apr-18 09:49 349 2 gusting 6 9.4
2015-Apr-18 09:44 339 1 gusting 7 10.0
2015-Apr-18 09:34 360 5 gusting 7 10.6
2015-Apr-18 09:19 360 6 gusting 12 10.6
2015-Apr-18 09:14 009 10 gusting 12 10.6
2015-Apr-18 09:09 009 10 gusting 12 10.6
2015-Apr-18 08:59 355 6 gusting 11 10.6
2015-Apr-18 08:29 015 9 gusting 12 10.6
2015-Apr-18 08:24 014 9 gusting 12 10.6
2015-Apr-18 08:09 015 9 gusting 14 10.6
2015-Apr-18 07:54 015 10 gusting 11 10.6
2015-Apr-18 07:49 009 8 gusting 10 10.6
2015-Apr-18 07:44 019 9 gusting 11 10.6
2015-Apr-18 07:29 022 8 gusting 13 10.6
2015-Apr-18 07:14 011 11 gusting 11 10.6
2015-Apr-18 07:09 009 10 gusting 10 10.6
2015-Apr-18 07:04 014 8 gusting 11 11.1
2015-Apr-18 06:59 016 9 gusting 12 11.1
2015-Apr-18 06:24 040 8 gusting 8 11.1
2015-Apr-18 06:14 026 7 gusting 10 11.1
2015-Apr-18 06:09 017 9 gusting 10 11.1
2015-Apr-18 05:54 042 7 gusting 9 11.1
2015-Apr-18 05:49 067 7 gusting 10 11.1
2015-Apr-18 05:44 063 8 gusting 12 11.1
2015-Apr-18 05:39 072 10 gusting 12 11.1
2015-Apr-18 05:34 066 9 gusting 10 11.1
2015-Apr-18 05:29 046 5 gusting 7 11.1
2015-Apr-18 05:19 019 6 gusting 8 11.1
2015-Apr-18 05:04 018 2 gusting 6 11.1
2015-Apr-18 04:49 030 6 gusting 9 11.1
2015-Apr-18 04:39 036 7 gusting 8 11.1
2015-Apr-18 04:29 036 6 gusting 7 11.1
2015-Apr-18 04:24 030 6 gusting 7 11.1
2015-Apr-18 04:09 032 6 gusting 7 11.1
2015-Apr-18 03:59 014 6 gusting 9 11.1
2015-Apr-18 03:49 021 7 gusting 8 11.7
2015-Apr-18 03:39 034 6 gusting 6 11.7
2015-Apr-18 03:29 022 6 gusting 11 12.2
2015-Apr-18 03:14 010 9 gusting 12 12.2
2015-Apr-18 02:59 041 10 gusting 10 12.8
2015-Apr-18 02:54 019 1 gusting 10 12.2
2015-Apr-18 02:44 025 8 gusting 13 12.8
2015-Apr-18 02:39 055 7 gusting 13 12.8
2015-Apr-18 02:34 317 11 gusting 12 13.3
2015-Apr-18 02:24 337 11 gusting 14 13.3
2015-Apr-18 02:19 344 6 gusting 14 13.3
2015-Apr-18 02:14 317 6 gusting 15 13.3
2015-Apr-18 02:09 342 9 gusting 15 13.3
2015-Apr-18 02:04 311 2 gusting 11 13.3
2015-Apr-18 01:59 275 1 gusting 12 13.3
2015-Apr-18 01:54 311 2 gusting 15 13.3
2015-Apr-18 01:44 345 7 gusting 15 12.8
2015-Apr-18 01:19 010 14 gusting 18 12.8
2015-Apr-18 00:54 341 9 gusting 17 13.9
2015-Apr-18 00:39 320 3 gusting 11 13.9
2015-Apr-18 00:29 260 0 gusting 12 13.9
2015-Apr-18 00:19 311 2 gusting 19 13.3
2015-Apr-18 00:14 319 6 gusting 19 13.3
2015-Apr-17 23:49 355 10 gusting 12 12.2
2015-Apr-17 23:39 017 12 gusting 13 12.8
2015-Apr-17 23:29 355 6 gusting 16 12.8
2015-Apr-17 23:14 346 13 gusting 20 12.8
2015-Apr-17 23:09 350 16 gusting 19 12.8
2015-Apr-17 23:04 345 13 gusting 18 12.8
2015-Apr-17 22:59 005 12 gusting 16 12.2
2015-Apr-17 22:44 346 14 gusting 17 12.8
2015-Apr-17 22:34 020 11 gusting 14 12.8
2015-Apr-17 22:24 005 11 gusting 15 12.8
2015-Apr-17 21:54 360 16 gusting 17 11.7
2015-Apr-17 21:49 005 13 gusting 17 11.7
2015-Apr-17 21:39 360 10 gusting 14 11.7
2015-Apr-17 21:29 360 10 gusting 16 11.7
2015-Apr-17 21:24 355 11 gusting 16 11.7
2015-Apr-17 21:19 360 9 gusting 18 11.7
2015-Apr-17 21:09 337 13 gusting 18 11.7
2015-Apr-17 21:04 340 15 gusting 18 11.7
2015-Apr-17 20:59 346 13 gusting 16 11.7
2015-Apr-17 20:54 350 11 gusting 16 11.7
2015-Apr-17 20:29 341 11 gusting 15 11.7
2015-Apr-17 20:04 015 15 gusting 16 12.2
2015-Apr-17 19:59 005 13 gusting 19 12.2
2015-Apr-17 19:54 360 14 gusting 19 12.2
2015-Apr-17 19:34 005 17 gusting 18 11.7
2015-Apr-17 19:29 360 10 gusting 19 11.7
2015-Apr-17 19:24 009 18 gusting 19 11.7
2015-Apr-17 19:09 005 15 gusting 19 11.7
2015-Apr-17 19:04 005 14 gusting 18 11.7
2015-Apr-17 18:59 017 13 gusting 15 11.7
2015-Apr-17 18:54 022 12 gusting 15 12.2
2015-Apr-17 18:44 011 11 gusting 15 12.2
2015-Apr-17 18:39 009 14 gusting 15 12.2
2015-Apr-17 18:34 015 13 gusting 15 11.7
2015-Apr-17 18:29 010 13 gusting 15 11.7
2015-Apr-17 18:24 005 11 gusting 15 12.2
2015-Apr-17 18:14 355 0 gusting 3 12.2
2015-Apr-17 17:59 355 2 gusting 6 11.7
2015-Apr-17 17:54 349 1 gusting 6 11.7
2015-Apr-17 17:49 355 3 gusting 6 11.7
2015-Apr-17 17:34 360 5 gusting 6 12.2
2015-Apr-17 17:24 057 2 gusting 3 12.2
2015-Apr-17 17:19 334 0 gusting 2 12.2
2015-Apr-17 17:14 334 0 gusting 2 12.2
2015-Apr-17 16:59 338 11.7
2015-Apr-17 16:54 339 11.1
2015-Apr-17 16:39 051 1 gusting 2 11.7
2015-Apr-17 16:34 051 11.7
2015-Apr-17 16:29 051 11.7
2015-Apr-17 16:24 051 0 gusting 3 11.1
2015-Apr-17 16:14 051 1 gusting 5 11.1
2015-Apr-17 16:09 051 1 gusting 5 11.1
2015-Apr-17 15:44 024 9 gusting 11 10.6
2015-Apr-17 15:39 014 10 gusting 12 10.6
2015-Apr-17 15:29 029 10 gusting 12 10.6
2015-Apr-17 15:14 015 11 gusting 14 10.6
2015-Apr-17 14:59 011 10 gusting 13 10.6
2015-Apr-17 14:54 015 12 gusting 14 10.6
2015-Apr-17 14:49 014 12 gusting 15 10.6
2015-Apr-17 14:44 029 10 gusting 15 10.6
2015-Apr-17 14:29 355 12 gusting 14 10.6
2015-Apr-17 14:19 005 13 gusting 16 10.6
2015-Apr-17 14:14 005 12 gusting 17 10.6
2015-Apr-17 14:04 011 8 gusting 19 10.0
2015-Apr-17 13:49 005 11 gusting 18 10.0
2015-Apr-17 13:44 332 14 gusting 20 10.0
2015-Apr-17 13:39 360 17 gusting 20 10.0
2015-Apr-17 13:24 010 19 gusting 19 10.0
2015-Apr-17 13:09 020 12 gusting 15 10.0
2015-Apr-17 13:04 009 12 gusting 14 10.0
2015-Apr-17 12:59 009 12 gusting 14 10.0
2015-Apr-17 12:54 017 12 gusting 14 10.0
2015-Apr-17 12:49 017 11 gusting 14 10.0
2015-Apr-17 12:44 015 10 gusting 13 10.0
2015-Apr-17 12:34 017 9 gusting 13 10.0
2015-Apr-17 12:29 025 10 gusting 13 10.0
2015-Apr-17 12:24 021 12 gusting 13 9.4
2015-Apr-17 12:19 026 12 gusting 12 9.4
2015-Apr-17 12:14 023 11 gusting 12 9.4
2015-Apr-17 12:09 019 9 gusting 12 9.4
2015-Apr-17 12:04 023 7 gusting 9 9.4
2015-Apr-17 11:54 034 6 gusting 9 9.4
2015-Apr-17 11:49 025 6 gusting 9 9.4
2015-Apr-17 11:44 017 9 gusting 10 9.4
2015-Apr-17 11:39 030 7 gusting 10 9.4
2015-Apr-17 11:34 010 7 gusting 10 9.4
2015-Apr-17 11:29 017 7 gusting 10 9.4
2015-Apr-17 11:24 013 7 gusting 8 9.4
2015-Apr-17 11:09 024 7 gusting 8 9.4
2015-Apr-17 10:59 012 8 gusting 11 9.4
2015-Apr-17 10:54 005 9 gusting 11 10.0
2015-Apr-17 10:49 010 11 gusting 11 10.0
2015-Apr-17 10:44 360 8 gusting 9 10.0
2015-Apr-17 10:39 015 8 gusting 10 10.0
2015-Apr-17 10:34 005 7 gusting 10 10.0
2015-Apr-17 10:19 009 7 gusting 11 10.0
2015-Apr-17 10:04 360 8 gusting 10 10.0
2015-Apr-17 09:54 360 10 gusting 10 10.0
2015-Apr-17 09:49 010 6 gusting 8 10.0
2015-Apr-17 09:39 018 6 gusting 6 9.4
2015-Apr-17 09:19 016 5 gusting 6 10.0
2015-Apr-17 09:09 013 2 gusting 6 10.0
2015-Apr-17 09:04 013 5 gusting 7 10.0
2015-Apr-17 08:54 011 6 gusting 7 10.0
2015-Apr-17 08:49 005 6 gusting 7 10.0
2015-Apr-17 08:44 013 7 gusting 8 10.0
2015-Apr-17 08:39 005 6 gusting 9 10.0
2015-Apr-17 08:19 360 9 gusting 10 10.0
2015-Apr-17 08:04 360 6 gusting 8 10.0
2015-Apr-17 07:39 009 6 gusting 10 10.0
2015-Apr-17 07:14 005 9 gusting 11 10.0
2015-Apr-17 07:04 015 10 gusting 11 10.0
2015-Apr-17 06:54 014 8 gusting 10 10.0
2015-Apr-17 06:49 360 9 gusting 10 10.6
2015-Apr-17 06:44 005 9 gusting 10 10.6
2015-Apr-17 06:29 360 6 gusting 10 10.6
2015-Apr-17 06:24 360 9 gusting 9 10.6
2015-Apr-17 06:14 349 6 gusting 8 10.0
2015-Apr-17 06:09 355 6 gusting 8 10.0
2015-Apr-17 05:59 342 6 gusting 6 10.0
2015-Apr-17 05:39 348 3 gusting 6 10.0
2015-Apr-17 05:34 348 5 gusting 6 10.6
2015-Apr-17 05:24 347 3 gusting 6 10.0
2015-Apr-17 05:19 344 2 gusting 6 10.0
2015-Apr-17 05:14 344 5 gusting 6 9.4
2015-Apr-17 05:09 344 1 gusting 5 9.4
2015-Apr-17 04:59 342 1 gusting 5 10.0
2015-Apr-17 04:54 344 10.0
2015-Apr-17 04:49 333 0 gusting 6 10.6
2015-Apr-17 04:34 346 6 gusting 6 11.1
2015-Apr-17 03:59 018 6 gusting 8 11.7
2015-Apr-17 03:49 355 3 gusting 6 11.1
2015-Apr-17 03:19 351 3 gusting 6 11.1
2015-Apr-17 03:14 338 5 gusting 6 11.1
2015-Apr-17 03:09 328 1 gusting 3 11.1
2015-Apr-17 03:04 328 2 gusting 6 11.1